Regional Weather Roundup
Issued by NWS State College, PA

Home | Current Version | Previous Version | Text Only | Print | Product List | Glossary On
Versions: 1 2 3 4 5 6 7 8 9 10 11 12 13 14 15 16 17 18 19 20 21 22 23 24 25 26 27 28 29 30 31 32 33 34 35 36 37 38 39 40 41 42 43 44 45 46 47 48 49 50
000
ASUS41 KCTP 291610
RWRCTP

REGIONAL WEATHER ROUNDUP
NATIONAL WEATHER SERVICE STATE COLLEGE PA
1200 PM EDT WED MAR 29 2017

Note: "fair" indicates few or no clouds below 12,000 feet with no
significant weather and/or obstructions to visibility.

* = STATION THAT DOES NOT REPORT PRECIPITATION /E.G. RAIN...SNOW...ETC/
    THUNDER OR FOG.

PAZ002>004-007>009-013>016-020>023-029>032-291700-
WESTERN PENNSYLVANIA

CITY           SKY/WX    TMP DP  RH WIND       PRES   REMARKS
ERIE           SUNNY     44  34  67 N6        30.28R
MEADVILLE      SUNNY     50  31  48 NE12      30.23F
FRANKLIN*      MOSUNNY   48  32  53 NE3       30.23F
NEW CASTLE     FAIR      50  35  56 VRB3      30.24F
BEAVER COUNTY  SUNNY     48  36  61 NE6       30.24S
BUTLER*        MOSUNNY   48  36  61 NE8       30.24S
PITTSBURGH INT MOSUNNY   50  37  61 VRB5      30.23S
PITTSBURGH     MOSUNNY   51  34  52 N9        30.21F
INDIANA*       MOSUNNY   50  36  57 N8        30.23S
LATROBE          N/A     50  37  62 N9        30.23R
WASHINGTON CO* PTSUNNY   52  37  58 NE7       30.24S
$$

PAZ004>006-010>012-017>019-024>028-033>037-041-042-045-046-049>053-291700-
CENTRAL PENNSYLVANIA

CITY           SKY/WX    TMP DP  RH WIND       PRES   REMARKS
BRADFORD       PTSUNNY   45  32  60 VRB7      30.20R
DUBOIS         SUNNY     48  30  49 VRB6      30.19S
CLEARFIELD       N/A    N/A N/A N/A MISG      30.19S
JOHNSTOWN      MOSUNNY   48  36  63 NW10      30.17R
ALTOONA        SUNNY     52  38  58 NE9       30.19R
STATE COLLEGE  MOSUNNY   50  34  53 NE9G17    30.19S
WILLIAMSPORT   PTSUNNY   51  31  46 N15       30.20F
SELINSGROVE    MOSUNNY   49  34  56 NW17      30.21S
FT INDIANTOWN  MOSUNNY   51  31  46 N12G17    30.16S
CAPITAL CITY   SUNNY     53  31  42 NW15      30.17F
HARRISBURG     SUNNY     53  33  46 NW14G26   30.16F
YORK           SUNNY     53  34  48 N9        30.15S
$$

PAZ038>040-043-044-047-048-054-055-060>062-067>071-291700-
EASTERN PENNSYLVANIA

CITY           SKY/WX    TMP DP  RH WIND       PRES   REMARKS
SCRANTON       PTSUNNY   47  31  53 NW12G24   30.15F
MOUNT POCONO   SUNNY     43  30  60 NW14G26   30.10S
ALLENTOWN      SUNNY     54  32  43 NW20      30.12F
QUAKERTOWN*    SUNNY     50  32  50 NW10G16   30.12F
READING        SUNNY     53  33  46 N16       30.13S
LANCASTER      SUNNY     54  36  50 N16G24    30.14F
COATESVILLE    SUNNY     52  34  50 N10G24    30.13F
POTTSTOWN      SUNNY     53  32  44 N14G22    30.12F
BLUE BELL      SUNNY     50  34  53 N9G18     30.11S
DOYLESTOWN     SUNNY     52  34  50 N9G22     30.09F
WILLOW GROVE   NOT AVBL
NORTH PHILA    SUNNY     55  36  48 NW16      30.11F
PHILADELPHIA   MOSUNNY   54  33  45 NW14G22   30.12S
$$




USA.gov is the U.S. government's official web portal to all federal, state and local government web resources and services.